Flag for Germany Weather past 2 weeks in Burgdorf, Lower Saxony, Germany

Now
79 °F

Scattered clouds.


Feels Like: 80 °F
Forecast: 62 / 80 °F
Wind: 1 mph from North

Location: Celle Airport

Current Time: Jul 26, 2014 at 8:08:49 PM

Latest Report: Jul 26, 2014 at 7:20 PM


Visibility: N/A

Pressure: 29.92 "Hg

Humidity: 51%

Dew point: 59 °F

Location of BurgdorfLocation

Historic Weather in Burgdorf — Graph

°F

Burgdorf temperature yesterday

Maximum temperature yesterday: 70 °F (at 3:48 PM)
Minimum temperature yesterday: 61 °F (at 12:20 AM)
Average temperature yesterday: 64 °F

Past Weeks' High & Low Weather Summary

 TemperatureHumidityPressure
High91 °F (Jul 19, 4:20 PM)100% (Jul 14, 2:20 AM)30.18 "Hg (Jul 14, 2:20 AM)
Low52 °F (Jul 12, 4:20 AM)26% (Jul 19, 4:20 PM)29.71 "Hg (Jul 13, 2:48 PM)
Average70 °F69%29.98 "Hg
* Reported Jul 11 6:20 PM — Jul 26 6:20 PM, Burgdorf, Weather by CustomWeather, © 2014

Note: Actual official high and low records may vary slightly from our data, if they occured in-between our weather recording intervals... More about our weather records

Advertising

Burgdorf weather history for previous 24 hours

 ConditionsComfort  
Time TempWeatherWind HumidityBarometerVisibility
6:20 PM
Jul 26
79 °FPassing clouds.3 mph51%29.92 "HgN/A
5:20 PM79 °FPassing clouds.2 mph51%29.92 "HgN/A
4:20 PM77 °FPassing clouds.5 mph57%29.92 "HgN/A
3:20 PM75 °FScattered clouds.5 mph61%29.92 "HgN/A
2:20 PM73 °FScattered clouds.5 mph65%29.92 "HgN/A
1:20 PM73 °FScattered clouds.5 mph69%29.95 "HgN/A
12:20 PM72 °FPartly sunny.3 mph73%29.95 "HgN/A
11:20 AM72 °FPartly sunny.5 mph78%29.95 "HgN/A
10:20 AM68 °FBroken clouds.6 mph88%29.95 "Hg4 mi
9:20 AM66 °FFog.3 mph94%29.95 "Hg2 mi
8:47 AM66 °FFog.3 mph88%29.95 "Hg2 mi
8:20 AM64 °FFog.3 mph100%29.92 "Hg1 mi
7:20 AM64 °FFog.3 mph94%29.95 "Hg1 mi
6:55 AM64 °FFog.3 mph100%29.92 "Hg1 mi
6:20 AM64 °FFog.2 mph100%29.92 "Hg0 mi
6:01 AM64 °FFog.2 mph100%29.92 "Hg0 mi
5:20 AM64 °FFog.1 mph94%29.92 "Hg1 mi
4:20 AM64 °FFog.No wind94%29.92 "Hg2 mi
3:20 AM64 °FFog.3 mph94%29.92 "Hg2 mi
2:20 AM64 °FFog.2 mph94%29.92 "Hg2 mi
1:20 AM64 °FFog.No wind94%29.92 "Hg3 mi
12:20 AM64 °FFog.1 mph94%29.92 "Hg3 mi
11:20 PM
Jul 25
64 °FLight rain. Fog.1 mph94%29.92 "Hg3 mi
10:20 PM63 °FLight rain. Fog.1 mph100%29.92 "Hg3 mi
9:20 PM64 °FLight rain. Fog.1 mph94%29.92 "Hg3 mi
8:20 PM64 °FDrizzle. Fog.2 mph100%29.92 "Hg3 mi
Weather by CustomWeather, © 2014

See weather overviewHow to use our weather pages